HZ102 HAAB-FZIC

Flight info

Callsign HZ102
Flight time 2h 27m
Altitude 40000
Route ETGOM2A ETGOM UL432 EKBUL UL432 LOV DCT PATAR UN553 NALOS UT136 BUN H1 OSBID DCT LEVKO LEVKO2C
Aircraft B738/M-SDE2E3FGHIRWXY/LB1

Departure

Time 2026-04-27 20:16
Airport Addis Ababa Bole International Airport (HAAB)

Arrival

Time 2026-04-27 22:43
Airport Bangoka International Airport (FZIC)
Time Latitude Longitude Altitude Speed Heading
2026-04-27 20:00 8.97925 38.79316 7619 ft 0 kts 164°
2026-04-27 20:06 8.97944 38.79310 7619 ft 4 kts 164°
2026-04-27 20:06 8.97970 38.79302 7620 ft 4 kts 163°
2026-04-27 20:07 8.97992 38.79295 7620 ft 4 kts 154°
2026-04-27 20:07 8.98009 38.79280 7620 ft 4 kts 96°
2026-04-27 20:07 8.98004 38.79256 7620 ft 4 kts 65°
2026-04-27 20:07 8.97998 38.79242 7620 ft 0 kts 73°
2026-04-27 20:10 8.98001 38.79253 7620 ft 4 kts 74°
2026-04-27 20:10 8.98016 38.79305 7620 ft 11 kts 74°
2026-04-27 20:11 8.98043 38.79399 7620 ft 17 kts 73°
2026-04-27 20:11 8.98080 38.79527 7620 ft 19 kts 73°
2026-04-27 20:11 8.98109 38.79622 7623 ft 13 kts 72°
2026-04-27 20:11 8.98136 38.79728 7620 ft 18 kts 103°
2026-04-27 20:12 8.98034 38.79789 7620 ft 18 kts 166°
2026-04-27 20:12 8.97954 38.79809 7622 ft 17 kts 165°
2026-04-27 20:12 8.97840 38.79753 7619 ft 17 kts 253°
2026-04-27 20:12 8.97805 38.79633 7618 ft 19 kts 254°
2026-04-27 20:13 8.97763 38.79489 7618 ft 23 kts 252°
2026-04-27 20:13 8.97714 38.79323 7617 ft 27 kts 253°
2026-04-27 20:13 8.97661 38.79141 7618 ft 26 kts 253°
2026-04-27 20:13 8.97612 38.78974 7619 ft 25 kts 255°
2026-04-27 20:14 8.97556 38.78782 7625 ft 29 kts 252°
2026-04-27 20:14 8.97501 38.78591 7623 ft 27 kts 253°
2026-04-27 20:14 8.97455 38.78424 7621 ft 21 kts 269°
2026-04-27 20:14 8.97469 38.78296 7621 ft 14 kts 247°
2026-04-27 20:15 8.97419 38.78315 7621 ft 10 kts 75°
2026-04-27 20:15 8.97454 38.78434 7621 ft 39 kts 73°
2026-04-27 20:15 8.97597 38.78925 7620 ft 105 kts 73°
2026-04-27 20:15 8.97861 38.79822 7620 ft 159 kts 73°
2026-04-27 20:16 8.98184 38.80994 7924 ft 182 kts 76°
2026-04-27 20:16 8.98534 38.82312 8401 ft 196 kts 75°
2026-04-27 20:16 8.98893 38.83594 9389 ft 186 kts 75°
2026-04-27 20:16 8.99260 38.84901 9829 ft 205 kts 74°
2026-04-27 20:17 8.99667 38.86361 10013 ft 226 kts 74°
2026-04-27 20:17 9.00117 38.87962 10178 ft 246 kts 73°
2026-04-27 20:17 9.00595 38.89669 10600 ft 256 kts 74°
2026-04-27 20:17 9.00779 38.90846 11034 ft 259 kts 94°
2026-04-27 20:18 8.99783 38.93005 12120 ft 259 kts 135°
2026-04-27 20:18 8.98254 38.93972 12859 ft 264 kts 161°
2026-04-27 20:18 8.96411 38.94151 13551 ft 272 kts 188°
2026-04-27 20:18 8.94648 38.93447 14246 ft 278 kts 217°
2026-04-27 20:19 8.93372 38.91980 14950 ft 282 kts 241°
2026-04-27 20:19 8.92527 38.90174 15692 ft 286 kts 246°
2026-04-27 20:19 8.91715 38.88322 16408 ft 290 kts 246°
2026-04-27 20:19 8.90879 38.86454 17134 ft 293 kts 246°
2026-04-27 20:20 8.89830 38.84679 17787 ft 299 kts 224°
2026-04-27 20:20 8.88059 38.83540 18159 ft 312 kts 199°
2026-04-27 20:20 8.85933 38.82792 18341 ft 335 kts 197°
2026-04-27 20:20 8.83647 38.82052 18499 ft 356 kts 196°
2026-04-27 20:21 8.81216 38.81267 18643 ft 376 kts 197°
2026-04-27 20:21 8.78697 38.80440 18771 ft 395 kts 197°
2026-04-27 20:21 8.75999 38.79541 18891 ft 412 kts 197°
2026-04-27 20:21 8.73228 38.78606 19025 ft 426 kts 197°
2026-04-27 20:22 8.70396 38.77643 19378 ft 432 kts 197°
2026-04-27 20:22 8.67535 38.76671 19887 ft 434 kts 197°
2026-04-27 20:22 8.64672 38.75700 20378 ft 436 kts 197°
2026-04-27 20:22 8.61824 38.74737 20825 ft 439 kts 197°
2026-04-27 20:23 8.58919 38.73757 21244 ft 442 kts 197°
2026-04-27 20:23 8.55993 38.72769 21657 ft 444 kts 197°
2026-04-27 20:23 8.53052 38.71776 22042 ft 447 kts 197°
2026-04-27 20:23 8.50087 38.70774 22416 ft 450 kts 197°
2026-04-27 20:24 8.47105 38.69766 22794 ft 453 kts 197°
2026-04-27 20:24 8.44111 38.68755 23165 ft 455 kts 197°
2026-04-27 20:24 8.41103 38.67740 23520 ft 457 kts 197°
2026-04-27 20:24 8.38075 38.66719 23860 ft 460 kts 197°
2026-04-27 20:25 8.35028 38.65690 24198 ft 462 kts 197°
2026-04-27 20:25 8.31976 38.64660 24521 ft 464 kts 197°
2026-04-27 20:25 8.28905 38.63623 24820 ft 466 kts 197°
2026-04-27 20:25 8.25820 38.62583 25140 ft 468 kts 197°
2026-04-27 20:26 8.22731 38.61541 25435 ft 470 kts 197°
2026-04-27 20:26 8.19623 38.60493 25714 ft 471 kts 197°
2026-04-27 20:26 8.16503 38.59440 25979 ft 474 kts 197°
2026-04-27 20:26 8.13379 38.58386 26263 ft 475 kts 197°
2026-04-27 20:27 8.10240 38.57328 26544 ft 476 kts 197°
2026-04-27 20:27 8.07087 38.56266 26803 ft 478 kts 197°
2026-04-27 20:27 8.03928 38.55201 27049 ft 480 kts 197°
2026-04-27 20:27 8.00752 38.54131 27281 ft 482 kts 197°
2026-04-27 20:28 7.97564 38.53057 27510 ft 483 kts 197°
2026-04-27 20:28 7.94371 38.51982 27734 ft 485 kts 197°
2026-04-27 20:28 7.91162 38.50900 27966 ft 487 kts 197°
2026-04-27 20:28 7.89037 38.50183 28115 ft 488 kts 197°
2026-04-27 20:29 7.84772 38.48748 28480 ft 488 kts 197°
2026-04-27 20:29 7.81557 38.47666 28827 ft 486 kts 197°
2026-04-27 20:29 7.78356 38.46589 29190 ft 484 kts 197°
2026-04-27 20:29 7.75170 38.45517 29563 ft 483 kts 197°
2026-04-27 20:30 7.71986 38.44446 29902 ft 482 kts 197°
2026-04-27 20:30 7.68806 38.43377 30229 ft 481 kts 197°
2026-04-27 20:30 7.65627 38.42307 30570 ft 481 kts 197°
2026-04-27 20:30 7.63486 38.41587 30813 ft 480 kts 198°
2026-04-27 20:31 7.60324 38.40524 31193 ft 478 kts 198°
2026-04-27 20:31 7.57169 38.39462 31552 ft 477 kts 198°
2026-04-27 20:31 7.54017 38.38402 31897 ft 477 kts 198°
2026-04-27 20:31 7.50875 38.37340 32242 ft 476 kts 199°
2026-04-27 20:32 7.47930 38.35822 32516 ft 479 kts 216°
2026-04-27 20:32 7.45535 38.33507 32927 ft 476 kts 230°
2026-04-27 20:32 7.43450 38.30934 33366 ft 473 kts 231°
2026-04-27 20:32 7.41400 38.28334 33691 ft 473 kts 231°
2026-04-27 20:33 7.39359 38.25734 34009 ft 473 kts 231°
2026-04-27 20:33 7.37337 38.23177 34352 ft 472 kts 231°
2026-04-27 20:33 7.35281 38.20602 34699 ft 471 kts 231°
2026-04-27 20:33 7.33221 38.18042 35005 ft 471 kts 231°
2026-04-27 20:34 7.31155 38.15490 35337 ft 470 kts 231°
2026-04-27 20:34 7.29091 38.12946 35687 ft 468 kts 231°
2026-04-27 20:34 7.27034 38.10412 36008 ft 467 kts 231°
2026-04-27 20:34 7.24978 38.07879 36277 ft 467 kts 231°
2026-04-27 20:35 7.22918 38.05341 36480 ft 468 kts 231°
2026-04-27 20:35 7.20884 38.02835 36688 ft 469 kts 230°
2026-04-27 20:35 7.18824 38.00296 36997 ft 467 kts 230°
2026-04-27 20:35 7.16776 37.97773 37422 ft 463 kts 230°
2026-04-27 20:36 7.14746 37.95272 37824 ft 458 kts 230°
2026-04-27 20:36 7.12733 37.92793 38131 ft 456 kts 230°
2026-04-27 20:36 7.10726 37.90321 38383 ft 456 kts 230°
2026-04-27 20:36 7.08717 37.87847 38568 ft 456 kts 230°
2026-04-27 20:37 7.06704 37.85368 38737 ft 457 kts 230°
2026-04-27 20:37 7.04689 37.82888 38909 ft 458 kts 230°
2026-04-27 20:37 7.02677 37.80412 39125 ft 457 kts 230°
2026-04-27 20:37 7.00665 37.77936 39334 ft 456 kts 230°
2026-04-27 20:38 6.98654 37.75462 39491 ft 457 kts 230°
2026-04-27 20:38 6.96661 37.73009 39646 ft 458 kts 230°
2026-04-27 20:38 6.94644 37.70527 39804 ft 458 kts 230°
2026-04-27 20:38 6.92625 37.68043 39978 ft 458 kts 230°
2026-04-27 20:39 6.90605 37.65557 40118 ft 459 kts 230°
2026-04-27 20:39 6.88583 37.63072 40193 ft 460 kts 230°
2026-04-27 20:39 6.86381 37.60734 40163 ft 461 kts 215°
2026-04-27 20:39 6.83644 37.59080 40230 ft 459 kts 206°
2026-04-27 20:40 6.77920 37.56100 40201 ft 466 kts 206°
2026-04-27 20:40 6.72134 37.53079 40180 ft 470 kts 206°
2026-04-27 20:41 6.66326 37.49996 40169 ft 472 kts 206°
2026-04-27 20:41 6.60516 37.46889 40165 ft 473 kts 207°
2026-04-27 20:42 6.54698 37.43774 40153 ft 473 kts 207°
2026-04-27 20:42 6.48891 37.40666 40140 ft 472 kts 206°
2026-04-27 20:43 6.43132 37.37587 40139 ft 471 kts 206°
2026-04-27 20:43 6.37348 37.34496 40126 ft 470 kts 206°
2026-04-27 20:44 6.31577 37.31413 40116 ft 469 kts 206°
2026-04-27 20:44 6.25818 37.28336 40109 ft 468 kts 206°
2026-04-27 20:45 6.20069 37.25266 40104 ft 467 kts 206°
2026-04-27 20:45 6.14324 37.22199 40095 ft 467 kts 206°
2026-04-27 20:46 6.08588 37.19138 40091 ft 467 kts 206°
2026-04-27 20:46 6.02854 37.16077 40081 ft 467 kts 206°
2026-04-27 20:47 5.97121 37.13019 40067 ft 466 kts 206°
2026-04-27 20:47 5.91390 37.09962 40077 ft 467 kts 206°
2026-04-27 20:48 5.85649 37.06901 40068 ft 467 kts 206°
2026-04-27 20:48 5.79912 37.03842 40060 ft 467 kts 206°
2026-04-27 20:49 5.74196 37.00795 40048 ft 468 kts 206°
2026-04-27 20:49 5.68434 36.97725 40042 ft 469 kts 206°
2026-04-27 20:50 5.62628 36.94631 40031 ft 469 kts 206°
2026-04-27 20:50 5.56861 36.91559 40019 ft 470 kts 206°
2026-04-27 20:51 5.51124 36.88505 40016 ft 470 kts 206°
2026-04-27 20:51 5.45347 36.85429 40009 ft 470 kts 206°
2026-04-27 20:52 5.39572 36.82354 40002 ft 470 kts 206°
2026-04-27 20:52 5.33798 36.79283 39998 ft 470 kts 206°
2026-04-27 20:53 5.28021 36.76208 39990 ft 470 kts 206°
2026-04-27 20:53 5.22248 36.73137 39979 ft 470 kts 206°
2026-04-27 20:54 5.13616 36.68547 39977 ft 469 kts 206°
2026-04-27 20:55 5.07845 36.65479 39966 ft 470 kts 206°
2026-04-27 20:55 5.02072 36.62410 39962 ft 469 kts 206°
2026-04-27 20:56 4.96301 36.59343 39959 ft 469 kts 206°
2026-04-27 20:56 4.90530 36.56274 39957 ft 470 kts 206°
2026-04-27 20:57 4.84755 36.53206 39949 ft 470 kts 206°
2026-04-27 20:57 4.78981 36.50141 39945 ft 470 kts 206°
2026-04-27 20:58 4.73205 36.47075 39941 ft 469 kts 206°
2026-04-27 20:58 4.67432 36.44011 39934 ft 469 kts 206°
2026-04-27 20:59 4.61663 36.40946 39936 ft 469 kts 206°
2026-04-27 20:59 4.55890 36.37881 39932 ft 470 kts 206°
2026-04-27 21:00 4.50104 36.34810 39925 ft 470 kts 206°
2026-04-27 21:00 4.44359 36.31765 39928 ft 470 kts 206°
2026-04-27 21:01 4.38576 36.28696 39918 ft 470 kts 206°
2026-04-27 21:01 4.32792 36.25627 39919 ft 470 kts 206°
2026-04-27 21:02 4.27001 36.22557 39912 ft 470 kts 206°
2026-04-27 21:02 4.21220 36.19491 39905 ft 470 kts 206°
2026-04-27 21:03 4.15437 36.16424 39908 ft 470 kts 206°
2026-04-27 21:03 4.09654 36.13359 39906 ft 470 kts 206°
2026-04-27 21:04 4.03871 36.10295 39899 ft 471 kts 206°
2026-04-27 21:04 3.98078 36.07228 39896 ft 471 kts 206°
2026-04-27 21:05 3.92279 36.04174 39899 ft 470 kts 206°
2026-04-27 21:05 3.86519 36.01145 39897 ft 470 kts 206°
2026-04-27 21:06 3.80733 35.98102 39897 ft 470 kts 206°
2026-04-27 21:06 3.74951 35.95057 39893 ft 470 kts 206°
2026-04-27 21:07 3.69159 35.92006 39887 ft 470 kts 206°
2026-04-27 21:07 3.63372 35.88959 39891 ft 470 kts 206°
2026-04-27 21:08 3.57581 35.85912 39888 ft 470 kts 206°
2026-04-27 21:08 3.51794 35.82866 39891 ft 469 kts 206°
2026-04-27 21:09 3.46014 35.79827 39882 ft 469 kts 206°
2026-04-27 21:09 3.40275 35.76806 39895 ft 469 kts 206°
2026-04-27 21:10 3.34505 35.73767 39886 ft 468 kts 206°
2026-04-27 21:10 3.28739 35.70735 39890 ft 468 kts 206°
2026-04-27 21:11 3.22968 35.67701 39889 ft 469 kts 206°
2026-04-27 21:11 3.17196 35.64665 39890 ft 469 kts 206°
2026-04-27 21:12 3.11484 35.61575 39882 ft 470 kts 212°
2026-04-27 21:12 3.06511 35.57350 39898 ft 470 kts 224°
2026-04-27 21:13 3.01854 35.52739 39890 ft 470 kts 224°
2026-04-27 21:13 2.97192 35.48154 39890 ft 470 kts 223°
2026-04-27 21:14 2.92501 35.43599 39887 ft 470 kts 223°
2026-04-27 21:14 2.87800 35.39053 39890 ft 470 kts 223°
2026-04-27 21:15 2.83096 35.34513 39893 ft 469 kts 223°
2026-04-27 21:15 2.78402 35.29977 39899 ft 469 kts 223°
2026-04-27 21:16 2.73713 35.25443 39906 ft 468 kts 223°
2026-04-27 21:16 2.69816 35.21675 39911 ft 468 kts 223°
2026-04-27 21:17 2.65131 35.17147 39926 ft 468 kts 223°
2026-04-27 21:17 2.60445 35.12620 39936 ft 468 kts 223°
2026-04-27 21:18 2.55761 35.08092 39948 ft 468 kts 223°
2026-04-27 21:18 2.51065 35.03555 39957 ft 469 kts 223°
2026-04-27 21:19 2.46571 34.98844 39965 ft 469 kts 235°
2026-04-27 21:19 2.43838 34.92946 39983 ft 470 kts 257°
2026-04-27 21:20 2.42110 34.83333 39994 ft 470 kts 261°
2026-04-27 21:20 2.40993 34.76891 40003 ft 471 kts 260°
2026-04-27 21:21 2.39825 34.70450 40009 ft 471 kts 260°
2026-04-27 21:21 2.38644 34.64052 40014 ft 471 kts 259°
2026-04-27 21:22 2.37454 34.57612 40022 ft 471 kts 260°
2026-04-27 21:22 2.36266 34.51171 40029 ft 471 kts 260°
2026-04-27 21:23 2.35079 34.44734 40037 ft 471 kts 260°
2026-04-27 21:23 2.33890 34.38288 40041 ft 471 kts 260°
2026-04-27 21:24 2.32703 34.31851 40048 ft 471 kts 260°
2026-04-27 21:24 2.31516 34.25417 40059 ft 471 kts 260°
2026-04-27 21:25 2.30327 34.18978 40061 ft 471 kts 260°
2026-04-27 21:25 2.29140 34.12547 40059 ft 471 kts 260°
2026-04-27 21:26 2.27951 34.06106 40070 ft 471 kts 260°
2026-04-27 21:26 2.26763 33.99670 40064 ft 471 kts 260°
2026-04-27 21:27 2.25573 33.93228 40076 ft 471 kts 260°
2026-04-27 21:27 2.24391 33.86834 40075 ft 471 kts 260°
2026-04-27 21:28 2.23201 33.80404 40078 ft 471 kts 260°
2026-04-27 21:28 2.22010 33.73966 40069 ft 471 kts 260°
2026-04-27 21:29 2.20819 33.67533 40064 ft 471 kts 260°
2026-04-27 21:29 2.19628 33.61098 40080 ft 471 kts 259°
2026-04-27 21:30 2.18435 33.54656 40075 ft 471 kts 260°
2026-04-27 21:30 2.17242 33.48215 40077 ft 471 kts 260°
2026-04-27 21:31 2.16048 33.41770 40078 ft 471 kts 259°
2026-04-27 21:31 2.14854 33.35327 40077 ft 472 kts 259°
2026-04-27 21:32 2.13658 33.28872 40073 ft 472 kts 259°
2026-04-27 21:32 2.12471 33.22467 40075 ft 472 kts 259°
2026-04-27 21:33 2.11275 33.16016 40078 ft 472 kts 259°
2026-04-27 21:33 2.10078 33.09565 40067 ft 472 kts 259°
2026-04-27 21:34 2.08880 33.03106 40079 ft 472 kts 260°
2026-04-27 21:34 2.07682 32.96648 40077 ft 472 kts 260°
2026-04-27 21:35 2.06484 32.90197 40074 ft 473 kts 260°
2026-04-27 21:35 2.05283 32.83723 40061 ft 473 kts 260°
2026-04-27 21:36 2.04091 32.77306 40064 ft 473 kts 260°
2026-04-27 21:36 2.02889 32.70833 40060 ft 474 kts 260°
2026-04-27 21:37 2.01686 32.64357 40050 ft 474 kts 260°
2026-04-27 21:37 2.00482 32.57878 40060 ft 474 kts 260°
2026-04-27 21:38 1.99278 32.51398 40049 ft 474 kts 260°
2026-04-27 21:38 1.98073 32.44915 40055 ft 474 kts 260°
2026-04-27 21:39 1.96867 32.38431 40052 ft 474 kts 260°
2026-04-27 21:39 1.95660 32.31941 40046 ft 475 kts 260°
2026-04-27 21:40 1.94453 32.25452 40044 ft 475 kts 260°
2026-04-27 21:40 1.93247 32.18969 40050 ft 475 kts 260°
2026-04-27 21:41 1.92049 32.12526 40059 ft 474 kts 260°
2026-04-27 21:41 1.90926 32.06028 40061 ft 474 kts 263°
2026-04-27 21:42 1.90168 31.99488 40059 ft 474 kts 264°
2026-04-27 21:42 1.89483 31.92927 40063 ft 474 kts 264°
2026-04-27 21:43 1.88763 31.86365 40068 ft 474 kts 264°
2026-04-27 21:43 1.88017 31.79813 40066 ft 474 kts 264°
2026-04-27 21:44 1.87263 31.73262 40061 ft 474 kts 264°
2026-04-27 21:44 1.86510 31.66710 40050 ft 474 kts 264°
2026-04-27 21:45 1.85757 31.60151 40070 ft 474 kts 264°
2026-04-27 21:45 1.85010 31.53637 40071 ft 475 kts 264°
2026-04-27 21:46 1.84257 31.47077 40070 ft 475 kts 264°
2026-04-27 21:46 1.83502 31.40508 40065 ft 476 kts 264°
2026-04-27 21:47 1.82747 31.33932 40064 ft 476 kts 264°
2026-04-27 21:47 1.81992 31.27359 40061 ft 476 kts 264°
2026-04-27 21:48 1.81236 31.20785 40071 ft 476 kts 264°
2026-04-27 21:48 1.80479 31.14197 40066 ft 477 kts 264°
2026-04-27 21:49 1.79727 31.07658 40070 ft 477 kts 264°
2026-04-27 21:49 1.78968 31.01068 40060 ft 477 kts 263°
2026-04-27 21:50 1.77493 30.94600 40078 ft 478 kts 252°
2026-04-27 21:50 1.75549 30.88247 40057 ft 478 kts 253°
2026-04-27 21:51 1.73705 30.81851 40071 ft 479 kts 254°
2026-04-27 21:51 1.71856 30.75463 40061 ft 479 kts 253°
2026-04-27 21:52 1.69994 30.69049 40057 ft 480 kts 253°
2026-04-27 21:52 1.68132 30.62637 40052 ft 481 kts 253°
2026-04-27 21:53 1.66269 30.56215 40047 ft 481 kts 253°
2026-04-27 21:53 1.64408 30.49802 40053 ft 481 kts 253°
2026-04-27 21:54 1.62543 30.43377 40049 ft 481 kts 253°
2026-04-27 21:54 1.60679 30.36955 40048 ft 481 kts 253°
2026-04-27 21:55 1.58826 30.30570 40052 ft 481 kts 253°
2026-04-27 21:55 1.56960 30.24145 40048 ft 481 kts 253°
2026-04-27 21:56 1.54696 30.14376 40050 ft 481 kts 258°
2026-04-27 21:57 1.53365 30.07821 40040 ft 481 kts 258°
2026-04-27 21:57 1.51999 30.01267 40027 ft 481 kts 258°
2026-04-27 21:58 1.50609 29.94720 40016 ft 482 kts 258°
2026-04-27 21:58 1.49222 29.88214 40020 ft 482 kts 258°
2026-04-27 21:59 1.47826 29.81660 40018 ft 482 kts 258°
2026-04-27 21:59 1.46432 29.75110 40020 ft 482 kts 258°
2026-04-27 22:00 1.45038 29.68558 40020 ft 482 kts 258°
2026-04-27 22:00 1.43644 29.62008 40019 ft 482 kts 258°
2026-04-27 22:01 1.42248 29.55458 40015 ft 482 kts 258°
2026-04-27 22:01 1.40836 29.48899 40009 ft 482 kts 258°
2026-04-27 22:02 1.39422 29.42355 40010 ft 482 kts 258°
2026-04-27 22:02 1.38010 29.35806 40008 ft 482 kts 258°
2026-04-27 22:03 1.36867 29.30506 40011 ft 482 kts 258°
2026-04-27 22:03 1.36363 29.28168 40012 ft 482 kts 258°
2026-04-27 22:04 1.34952 29.21619 40008 ft 482 kts 258°
2026-04-27 22:04 1.33780 29.16183 40010 ft 482 kts 258°
2026-04-27 22:05 1.32369 29.09638 40009 ft 482 kts 258°
2026-04-27 22:05 1.30730 29.02032 40011 ft 482 kts 258°
2026-04-27 22:06 1.29542 28.96552 40008 ft 482 kts 257°
2026-04-27 22:06 1.28113 28.90016 40008 ft 481 kts 257°
2026-04-27 22:07 1.26691 28.83520 40010 ft 481 kts 257°
2026-04-27 22:07 1.25253 28.76944 40010 ft 482 kts 257°
2026-04-27 22:08 1.23834 28.70450 40008 ft 482 kts 257°
2026-04-27 22:08 1.22407 28.63913 40006 ft 482 kts 257°
2026-04-27 22:09 1.20978 28.57374 39999 ft 482 kts 257°
2026-04-27 22:09 1.19549 28.50835 40000 ft 482 kts 257°
2026-04-27 22:10 1.18120 28.44297 39999 ft 482 kts 257°
2026-04-27 22:10 1.16691 28.37756 40002 ft 482 kts 257°
2026-04-27 22:11 1.15262 28.31218 40003 ft 482 kts 257°
2026-04-27 22:11 1.13831 28.24674 39997 ft 482 kts 257°
2026-04-27 22:12 1.12402 28.18135 39998 ft 482 kts 257°
2026-04-27 22:12 1.10973 28.11600 40003 ft 482 kts 257°
2026-04-27 22:13 1.09540 28.05048 39986 ft 483 kts 257°
2026-04-27 22:13 1.08108 27.98498 39989 ft 482 kts 257°
2026-04-27 22:14 1.06683 27.91994 39988 ft 483 kts 257°
2026-04-27 22:14 1.05251 27.85445 39991 ft 482 kts 257°
2026-04-27 22:15 1.03820 27.78899 39994 ft 482 kts 257°
2026-04-27 22:15 1.02388 27.72350 39990 ft 483 kts 257°
2026-04-27 22:16 1.00953 27.65795 39981 ft 483 kts 257°
2026-04-27 22:16 0.99520 27.59244 39982 ft 483 kts 257°
2026-04-27 22:17 0.98087 27.52696 39977 ft 482 kts 257°
2026-04-27 22:17 0.96653 27.46151 39983 ft 482 kts 257°
2026-04-27 22:18 0.95220 27.39604 39983 ft 482 kts 257°
2026-04-27 22:18 0.93788 27.33063 39969 ft 482 kts 257°
2026-04-27 22:19 0.92354 27.26518 39978 ft 482 kts 257°
2026-04-27 22:19 0.90921 27.19973 39974 ft 482 kts 257°
2026-04-27 22:20 0.89490 27.13430 39972 ft 482 kts 257°
2026-04-27 22:20 0.88054 27.06883 39978 ft 482 kts 257°
2026-04-27 22:20 0.87337 27.03609 39631 ft 485 kts 257°
2026-04-27 22:21 0.86616 27.00316 39082 ft 483 kts 257°
2026-04-27 22:21 0.85899 26.97044 38482 ft 482 kts 257°
2026-04-27 22:21 0.85192 26.93819 37880 ft 481 kts 257°
2026-04-27 22:21 0.84469 26.90517 37244 ft 480 kts 257°
2026-04-27 22:22 0.83765 26.87305 36615 ft 479 kts 257°
2026-04-27 22:22 0.83045 26.84014 35957 ft 479 kts 257°
2026-04-27 22:22 0.82334 26.80769 35231 ft 479 kts 257°
2026-04-27 22:22 0.81630 26.77555 34505 ft 480 kts 257°
2026-04-27 22:23 0.80914 26.74288 33738 ft 482 kts 257°
2026-04-27 22:23 0.80196 26.71013 32954 ft 483 kts 257°
2026-04-27 22:23 0.79476 26.67723 32141 ft 485 kts 257°
2026-04-27 22:23 0.78753 26.64424 31294 ft 487 kts 257°
2026-04-27 22:24 0.78028 26.61115 30409 ft 489 kts 257°
2026-04-27 22:24 0.77299 26.57792 29486 ft 491 kts 257°
2026-04-27 22:24 0.76568 26.54454 28478 ft 493 kts 257°
2026-04-27 22:24 0.75837 26.51116 27593 ft 493 kts 257°
2026-04-27 22:25 0.75109 26.47791 26874 ft 487 kts 257°
2026-04-27 22:25 0.74388 26.44501 26140 ft 482 kts 257°
2026-04-27 22:25 0.73675 26.41245 25417 ft 478 kts 257°
2026-04-27 22:25 0.72967 26.38017 24699 ft 473 kts 257°
2026-04-27 22:26 0.72262 26.34828 23983 ft 467 kts 257°
2026-04-27 22:26 0.71579 26.31665 23256 ft 463 kts 257°
2026-04-27 22:26 0.70896 26.28551 22564 ft 453 kts 257°
2026-04-27 22:26 0.70233 26.25491 21857 ft 449 kts 257°
2026-04-27 22:27 0.69574 26.22467 21183 ft 445 kts 258°
2026-04-27 22:27 0.68908 26.19462 20496 ft 440 kts 256°
2026-04-27 22:27 0.68185 26.16517 19817 ft 434 kts 258°
2026-04-27 22:27 0.67957 26.13524 19208 ft 431 kts 271°
2026-04-27 22:28 0.68291 26.10608 18966 ft 417 kts 278°
2026-04-27 22:28 0.68692 26.07752 18428 ft 414 kts 277°
2026-04-27 22:28 0.69051 26.04910 17800 ft 411 kts 277°
2026-04-27 22:28 0.69386 26.02089 17159 ft 408 kts 276°
2026-04-27 22:29 0.69726 25.99299 16524 ft 401 kts 277°
2026-04-27 22:29 0.70031 25.96534 15882 ft 400 kts 276°
2026-04-27 22:29 0.70353 25.93777 15244 ft 398 kts 276°
2026-04-27 22:29 0.70654 25.91054 14609 ft 393 kts 275°
2026-04-27 22:30 0.70915 25.88354 13972 ft 389 kts 277°
2026-04-27 22:30 0.71240 25.85683 13352 ft 387 kts 278°
2026-04-27 22:30 0.71570 25.83020 12733 ft 385 kts 277°
2026-04-27 22:30 0.71890 25.80376 12115 ft 380 kts 277°
2026-04-27 22:31 0.72194 25.77747 11494 ft 380 kts 275°
2026-04-27 22:31 0.72191 25.75122 10873 ft 377 kts 267°
2026-04-27 22:31 0.71990 25.72548 10647 ft 364 kts 265°
2026-04-27 22:31 0.71749 25.70074 10474 ft 351 kts 264°
2026-04-27 22:32 0.71526 25.67723 10330 ft 338 kts 265°
2026-04-27 22:32 0.71333 25.65434 10189 ft 323 kts 265°
2026-04-27 22:32 0.71138 25.63238 10043 ft 313 kts 265°
2026-04-27 22:32 0.70952 25.61072 9871 ft 306 kts 265°
2026-04-27 22:33 0.70781 25.58992 9546 ft 304 kts 265°
2026-04-27 22:33 0.70612 25.56902 9230 ft 301 kts 265°
2026-04-27 22:33 0.70446 25.54820 8894 ft 300 kts 265°
2026-04-27 22:33 0.70282 25.52750 8565 ft 298 kts 265°
2026-04-27 22:34 0.70122 25.50701 8285 ft 294 kts 265°
2026-04-27 22:34 0.69964 25.48680 8029 ft 291 kts 265°
2026-04-27 22:34 0.69807 25.46664 7783 ft 291 kts 265°
2026-04-27 22:34 0.69652 25.44668 7554 ft 286 kts 265°
2026-04-27 22:35 0.69500 25.42693 7249 ft 283 kts 265°
2026-04-27 22:35 0.69348 25.40737 6940 ft 282 kts 265°
2026-04-27 22:35 0.69192 25.38785 6618 ft 282 kts 265°
2026-04-27 22:35 0.69045 25.36836 6280 ft 281 kts 265°
2026-04-27 22:36 0.68897 25.34897 5964 ft 279 kts 265°
2026-04-27 22:36 0.68747 25.32967 5640 ft 278 kts 265°
2026-04-27 22:36 0.68596 25.31055 5449 ft 272 kts 265°
2026-04-27 22:36 0.68452 25.29201 5333 ft 263 kts 265°
2026-04-27 22:37 0.68315 25.27412 5235 ft 254 kts 265°
2026-04-27 22:37 0.68182 25.25678 5133 ft 246 kts 265°
2026-04-27 22:37 0.68021 25.24018 5053 ft 233 kts 257°
2026-04-27 22:37 0.67270 25.22640 4915 ft 229 kts 223°
2026-04-27 22:38 0.65932 25.21702 4787 ft 241 kts 206°
2026-04-27 22:38 0.64396 25.20992 4606 ft 244 kts 203°
2026-04-27 22:38 0.62852 25.20312 4408 ft 239 kts 203°
2026-04-27 22:38 0.61374 25.19650 4228 ft 227 kts 203°
2026-04-27 22:39 0.59920 25.19206 4038 ft 215 kts 180°
2026-04-27 22:39 0.58516 25.19572 3901 ft 209 kts 150°
2026-04-27 22:39 0.57419 25.20503 3765 ft 208 kts 127°
2026-04-27 22:39 0.56629 25.21653 3605 ft 198 kts 124°
2026-04-27 22:40 0.55869 25.22759 3455 ft 185 kts 125°
2026-04-27 22:40 0.55148 25.23803 3322 ft 179 kts 125°
2026-04-27 22:40 0.54473 25.24775 3207 ft 168 kts 125°
2026-04-27 22:40 0.53823 25.25714 3044 ft 158 kts 125°
2026-04-27 22:41 0.53209 25.26592 2821 ft 147 kts 126°
2026-04-27 22:41 0.52643 25.27403 2637 ft 143 kts 127°
2026-04-27 22:41 0.52072 25.28214 2455 ft 144 kts 128°
2026-04-27 22:41 0.51496 25.29036 2281 ft 145 kts 127°
2026-04-27 22:42 0.50913 25.29871 2101 ft 148 kts 127°
2026-04-27 22:42 0.50338 25.30717 1944 ft 145 kts 126°
2026-04-27 22:42 0.49754 25.31543 1730 ft 145 kts 127°
2026-04-27 22:42 0.49179 25.32375 1497 ft 147 kts 127°
2026-04-27 22:43 0.48608 25.33172 1417 ft 126 kts 123°
2026-04-27 22:43 0.48225 25.33720 1419 ft 66 kts 125°
2026-04-27 22:43 0.48064 25.33914 1415 ft 10 kts 122°
2026-04-27 22:43 0.48079 25.33928 1415 ft 6 kts 355°
2026-04-27 22:44 0.48127 25.33861 1415 ft 20 kts 303°
2026-04-27 22:44 0.48234 25.33709 1415 ft 34 kts 305°
2026-04-27 22:44 0.48390 25.33485 1417 ft 43 kts 305°
2026-04-27 22:44 0.48551 25.33259 1416 ft 39 kts 304°
2026-04-27 22:45 0.48741 25.32987 1414 ft 52 kts 305°
2026-04-27 22:45 0.48941 25.32705 1416 ft 46 kts 305°
2026-04-27 22:45 0.49091 25.32555 1413 ft 24 kts 345°
2026-04-27 22:45 0.49225 25.32605 1411 ft 20 kts 57°
2026-04-27 22:46 0.49239 25.32733 1411 ft 19 kts 110°
2026-04-27 22:46 0.49168 25.32845 1412 ft 19 kts 126°
2026-04-27 22:46 0.49140 25.32909 1412 ft 5 kts 66°
2026-04-27 22:46 0.49150 25.32917 1412 ft 4 kts 36°
2026-04-27 22:47 0.49180 25.32939 1412 ft 0 kts 36°